User: anonymous   Login
Location: Unspecified
(0.0000°N, 0.0000°E)
Time: 16:28:31
(UTC+02:00)
Language:

Meteor 1-31 Rocket - Orbit

View from above orbital plane
View from above orbital plane
View from above satellite
View from above satellite

Ground track
Ground track

The orbit data is extracted from the following two-line orbital elements,

1 12586U 81065B   15090.13036444  .00005136  00000-0  33684-3 0  9994
2 12586 097.4212 083.3400 0021844 098.4249 261.9457 15.07907657834479
Epoch (UTC): 31 March 2015 03:07:43
Eccentricity: 0.0021844
inclination: 97.4212°
perigee height: 527 km
apogee height: 558 km
right ascension of ascending node: 83.3400°
argument of perigee: 98.4249°
revolutions per day: 15.07907657
mean anomaly at epoch: 261.9457°
orbit number at epoch: 83447

The dashed part of the orbit path shows where the satellite is in the earth's shadow,  

DLR